MACSAT 2 (M 2) 1 20608U 90043B 10248.58133530 .00000177 00000-0 23224-4 0 1090 2 20608 089.7279 067.4166 0095792 130.6469 230.3124 14.72078661 88879 TUBSAT A 1 21577U 91050D 10247.84104956 +.00000021 +00000-0 +21388-4 0 08615 2 21577 098.5166 195.1434 0006743 152.9336 207.2223 14.38574468004131 S80/T 1 22078U 92052C 10247.94539224 -.00000037 +00000-0 +10000-3 0 09084 2 22078 066.0844 108.2357 0001961 055.0245 305.0943 12.86732169848967 HEALTHSAT 1 1 22827U 93061E 10248.55302125 -.00000014 00000-0 11303-4 0 6319 2 22827 098.4817 196.4598 0009169 007.8716 352.2602 14.30217171883888 TUBSAT B 1 22970U 94003B 10248.42418104 .00000051 00000-0 10000-3 0 4181 2 22970 082.5615 195.3953 0015313 210.5363 149.4915 13.16918180798585 CERISE 1 23606U 95033B 10248.54275483 .00000049 00000-0 12565-4 0 1965 2 23606 098.2961 030.7922 0007719 104.0564 256.1553 14.85169924817968 UPM/LBSAT 1 23607U 95033C 10248.36010892 -.00000067 00000-0 -21646-5 0 4716 2 23607 098.1756 343.7471 0005159 274.9927 085.0703 14.74863950814660 FAISAT 2V 1 24954U 97052B 10248.41891986 .00000050 00000-0 33546-4 0 9268 2 24954 082.9260 342.0572 0038812 321.3933 038.4458 13.79673059652063 MUBLCOM 1 25736U 99026B 10247.83578403 +.00000162 +00000-0 +57728-4 0 01175 2 25736 097.7592 146.1838 0006445 121.7162 238.4682 14.44737628594999 RUBIN 3/SL-8 1 27561U 02054C 10248.37240558 .00000019 00000-0 14870-4 0 749 2 27561 097.9422 065.8317 0046805 298.4164 061.2318 14.53830746412192 APRIZESAT 2 1 28366U 04025A 10249.00153618 -.00000004 00000-0 12839-4 0 7121 2 28366 098.1274 224.2876 0108182 267.2354 091.6452 14.35621689324199 SAUDICOMSAT 1 1 28369U 04025D 10248.70893799 -.00000022 00000-0 51628-5 0 7525 2 28369 097.9781 269.9202 0035357 115.3927 245.0943 14.50703395327547 SAUDICOMSAT 2 1 28370U 04025E 10249.07800751 .00000087 00000-0 35462-4 0 7600 2 28370 098.0112 253.2876 0059359 158.7388 201.6290 14.45800102326496 APRIZESAT 1 1 28372U 04025G 10248.60271544 .00000063 00000-0 27736-4 0 7397 2 28372 097.9905 260.6043 0047891 137.1701 223.3247 14.48220626326967 NANOSAT(1) 1 28493U 04049B 10247.55700818 +.00000103 +00000-0 +25628-4 0 07237 2 28493 098.3233 221.4275 0003799 293.5201 066.5619 14.70441839306462 SAUDICOMSAT 7 1 31119U 07012C 10249.13610412 .00000385 00000-0 88724-4 0 270 2 31119 097.9358 298.7358 0061319 300.2722 059.2394 14.59528485180547 SAUDICOMSAT 6 1 31121U 07012E 10248.55935601 .00000365 00000-0 89075-4 0 276 2 31121 097.9309 291.9586 0078776 320.5136 039.0341 14.56397415180084 SAUDICOMSAT 5 1 31124U 07012H 10247.73021676 +.00000399 +00000-0 +89121-4 0 00365 2 31124 097.9399 300.8032 0052836 295.9479 063.6269 14.61116932180537 SAUDICOMSAT 3 1 31125U 07012J 10247.86098910 +.00000410 +00000-0 +88749-4 0 00443 2 31125 097.9445 304.1297 0044145 286.6892 072.9447 14.62651267180740 SAUDICOMSAT 4 1 31127U 07012L 10248.67658855 .00000380 00000-0 89803-4 0 342 2 31127 097.9332 295.3790 0069903 310.7111 048.7990 14.58049944180290 OMID (Decayed 2009-04-25) 1 33506U 09004A 09114.86154729 .06921312 12321-4 12316-3 0 2702 2 33506 055.4370 280.8401 0011504 012.0650 349.7794 16.46787765 12981 APRIZESAT 4 1 35684U 09041D 10247.88516441 -.00000166 +00000-0 -15851-4 0 03578 2 35684 098.0914 148.7760 0050505 147.2452 213.1899 14.76099536059324 APRIZESAT 3 1 35686U 09041F 10248.89551344 -.00000008 00000-0 61817-5 0 3481 2 35686 098.0966 153.9610 0080338 136.3425 224.4181 14.82600899 59732